Eagle River, WI

9:21 AM CST on December 15, 2017 (GMT -0600)
Eagle River Union

Weather History for KEGV - August, 2013

Change the Weather History Date:

Sunday, August 25, 2013

  Actual Average Record
Temperature  
Mean Temperature 80 °F -  
Max Temperature 91 °F 77 °F 91 °F (2013)
Min Temperature 70 °F 55 °F 33 °F (2008)
Cooling Degree Days 16    
Growing Degree Days 30 (Base 50)    
Moisture  
Dew Point 66 °F    
Average Humidity 64    
Maximum Humidity 82    
Minimum Humidity 41    
Precipitation  
Precipitation 0.00 in - - ()
Sea Level Pressure  
Sea Level Pressure 30.04 in    
Wind  
Wind Speed 11 mph (SW)    
Max Wind Speed 21 mph    
Max Gust Speed 29 mph    
Visibility 10 miles    
Events Rain    
Averages and records for this station are not official NWS values.
T = Trace of Precipitation, MM = Missing Value Source: NWS Daily Summary

Daily Weather History Graph

Daily Weather History Graph

Search for Another Location

Airport or City:

Trip Planner

Search our weather history database for the weather conditions in past years. The results will help you decide how hot, cold, wet, or windy it might be!

Date:

Astronomy

Aug. 25, 2013 Rise Set
Actual Time 6:09 AM CDT 7:47 PM CDT
Civil Twilight 5:38 AM CDT 8:19 PM CDT
Nautical Twilight 4:59 AM CDT 8:57 PM CDT
Astronomical Twilight 4:18 AM CDT 9:38 PM CDT
Moon 9:58 PM CDT (8/25) 11:30 AM CDT (8/25)
Length of Visible Light 14h 41m
Length of Day
13h 38m
Waning Gibbous, 75% of the Moon is Illuminated
Aug 25
Waning Gibbous
Aug 28
Last Quarter
Sep 5
New
Sep 12
First Quarter
Sep 19
Full

Hourly Weather History & Observations

Time (CDT) Temp. Heat Index Dew Point Humidity Pressure Visibility Wind Dir Wind Speed Gust Speed Precip Events Conditions
12:15 AM 71.6 °F - 63.1 °F 75% 30.09 in 10.0 mi SSW 9.2 mph 17.3 mph N/A   Mostly Cloudy
12:35 AM 71.6 °F - 63.1 °F 75% 30.08 in 10.0 mi SSW 11.5 mph 18.4 mph N/A   Overcast
12:55 AM 71.6 °F - 63.1 °F 75% 30.09 in 10.0 mi SSW 6.9 mph 17.3 mph N/A   Mostly Cloudy
1:15 AM 71.2 °F - 63.1 °F 75% 30.08 in 10.0 mi South 6.9 mph - N/A   Mostly Cloudy
1:35 AM 71.1 °F - 63.1 °F 76% 30.08 in 10.0 mi South 6.9 mph - N/A   Mostly Cloudy
1:55 AM 71.2 °F - 63.3 °F 76% 30.07 in 10.0 mi South 6.9 mph - N/A   Overcast
2:15 AM 71.2 °F - 63.5 °F 76% 30.08 in 10.0 mi SSW 5.8 mph - N/A   Overcast
2:35 AM 71.6 °F - 63.5 °F 76% 30.08 in 10.0 mi SSW 8.1 mph - N/A   Overcast
2:55 AM 71.8 °F - 63.9 °F 76% 30.08 in 10.0 mi SSW 11.5 mph 18.4 mph N/A Rain Rain
3:15 AM 70.7 °F - 64.4 °F 80% 30.08 in 10.0 mi SW 8.1 mph - N/A   Scattered Clouds
3:35 AM 71.2 °F - 64.4 °F 79% 30.08 in 10.0 mi SSW 9.2 mph - N/A   Scattered Clouds
3:55 AM 70.9 °F - 64.4 °F 80% 30.08 in 10.0 mi SSW 5.8 mph - N/A   Mostly Cloudy
4:15 AM 71.1 °F - 64.4 °F 79% 30.07 in 10.0 mi SW 8.1 mph - N/A   Scattered Clouds
4:35 AM 71.6 °F - 64.6 °F 78% 30.07 in 10.0 mi SW 11.5 mph 17.3 mph N/A   Scattered Clouds
4:55 AM 71.6 °F - 64.8 °F 79% 30.07 in 10.0 mi SW 10.4 mph 18.4 mph N/A   Scattered Clouds
5:15 AM 71.6 °F - 64.8 °F 79% 30.07 in 10.0 mi SW 15.0 mph 25.3 mph N/A   Clear
5:35 AM 71.2 °F - 64.8 °F 80% 30.07 in 10.0 mi SW 10.4 mph 18.4 mph N/A   Clear
5:55 AM 70.9 °F - 64.8 °F 81% 30.07 in 10.0 mi SW 10.4 mph - N/A   Scattered Clouds
6:15 AM 70.7 °F - 64.8 °F 81% 30.07 in 10.0 mi SW 9.2 mph - N/A   Clear
6:35 AM 71.1 °F - 65.3 °F 82% 30.08 in 10.0 mi WSW 11.5 mph - N/A   Scattered Clouds
6:55 AM 71.2 °F - 65.3 °F 81% 30.08 in 10.0 mi SW 10.4 mph 16.1 mph N/A   Scattered Clouds
7:15 AM 72.5 °F - 65.5 °F 79% 30.08 in 10.0 mi SW 10.4 mph 18.4 mph N/A   Scattered Clouds
7:35 AM 73.0 °F - 65.7 °F 78% 30.08 in 10.0 mi SW 12.7 mph 20.7 mph N/A   Clear
7:55 AM 73.8 °F - 65.8 °F 76% 30.07 in 10.0 mi SW 11.5 mph - N/A   Clear
8:15 AM 74.3 °F - 66.0 °F 75% 30.07 in 10.0 mi SW 11.5 mph 19.6 mph N/A   Mostly Cloudy
8:35 AM 75.2 °F - 66.2 °F 73% 30.06 in 10.0 mi SW 16.1 mph 23.0 mph N/A   Scattered Clouds
8:55 AM 76.1 °F - 66.4 °F 72% 30.06 in 10.0 mi SW 15.0 mph 19.6 mph N/A   Clear
9:15 AM 77.9 °F - 66.9 °F 69% 30.06 in 10.0 mi WSW 16.1 mph 19.6 mph N/A   Clear
9:35 AM 79.0 °F - 66.7 °F 66% 30.06 in 10.0 mi WSW 16.1 mph 25.3 mph N/A   Clear
9:55 AM 80.1 °F 82.3 °F 66.9 °F 64% 30.06 in 10.0 mi WSW 18.4 mph 25.3 mph N/A   Scattered Clouds
10:15 AM 80.6 °F 82.9 °F 66.9 °F 63% 30.06 in 10.0 mi WSW 13.8 mph 21.9 mph N/A   Scattered Clouds
10:35 AM 82.2 °F 84.9 °F 67.5 °F 61% 30.05 in 10.0 mi WSW 17.3 mph - N/A   Scattered Clouds
10:55 AM 83.1 °F 85.9 °F 67.3 °F 59% 30.05 in 10.0 mi SW 13.8 mph 19.6 mph N/A   Scattered Clouds
11:15 AM 83.8 °F 86.7 °F 67.5 °F 58% 30.05 in 10.0 mi WSW 17.3 mph 20.7 mph N/A   Scattered Clouds
11:35 AM 84.6 °F 87.4 °F 67.1 °F 56% 30.04 in 10.0 mi WSW 16.1 mph 25.3 mph N/A   Scattered Clouds
11:55 AM 84.2 °F 86.8 °F 66.7 °F 56% 30.04 in 10.0 mi WSW 15.0 mph 24.2 mph N/A   Scattered Clouds
12:15 PM 85.6 °F 88.2 °F 66.9 °F 53% 30.03 in 10.0 mi WSW 18.4 mph 25.3 mph N/A   Clear
12:35 PM 85.8 °F 88.5 °F 66.9 °F 53% 30.03 in 10.0 mi SW 13.8 mph 25.3 mph N/A   Clear
12:55 PM 86.4 °F 88.7 °F 66.6 °F 51% 30.02 in 10.0 mi SW 11.5 mph 25.3 mph N/A   Clear
1:15 PM 87.6 °F 90.1 °F 66.4 °F 49% 30.01 in 10.0 mi WSW 18.4 mph 28.8 mph N/A   Clear
1:35 PM 88.5 °F 90.8 °F 65.7 °F 47% 30.01 in 10.0 mi SW 15.0 mph 25.3 mph N/A   Clear
1:55 PM 89.2 °F 91.6 °F 66.0 °F 46% 30.00 in 10.0 mi SW 12.7 mph 24.2 mph N/A   Clear
2:15 PM 90.1 °F 92.7 °F 66.0 °F 45% 30.00 in 10.0 mi SW 20.7 mph 26.5 mph N/A   Clear
2:35 PM 90.5 °F 93.3 °F 66.4 °F 45% 30.00 in 10.0 mi WSW 19.6 mph 25.3 mph N/A   Clear
2:55 PM 90.9 °F 93.5 °F 66.2 °F 44% 29.99 in 10.0 mi SW 13.8 mph 23.0 mph N/A   Clear
3:15 PM 91.2 °F 92.9 °F 64.8 °F 41% 29.99 in 10.0 mi SW 12.7 mph 26.5 mph N/A   Clear
3:35 PM 90.5 °F 92.9 °F 66.0 °F 44% 29.99 in 10.0 mi SW 11.5 mph 23.0 mph N/A   Clear
3:55 PM 90.7 °F 93.6 °F 66.6 °F 45% 29.99 in 10.0 mi SW 16.1 mph 20.7 mph N/A   Clear
4:15 PM 90.3 °F 93.0 °F 66.6 °F 45% 29.99 in 10.0 mi SW 15.0 mph 19.6 mph N/A   Clear
4:35 PM 89.6 °F 92.2 °F 66.6 °F 46% 29.99 in 10.0 mi SW 16.1 mph 21.9 mph N/A   Clear
4:55 PM 89.6 °F 92.6 °F 66.7 °F 47% 30.00 in 10.0 mi WSW 17.3 mph 20.7 mph N/A   Clear
5:15 PM 89.1 °F 92.1 °F 66.7 °F 48% 30.00 in 10.0 mi SW 13.8 mph 20.7 mph N/A   Clear
5:35 PM 86.9 °F 89.6 °F 66.7 °F 51% 30.01 in 10.0 mi SW 10.4 mph 20.7 mph N/A   Clear
5:55 PM 87.8 °F 90.4 °F 66.6 °F 49% 30.01 in 10.0 mi SW 11.5 mph 19.6 mph N/A   Clear
6:15 PM 87.3 °F 90.2 °F 66.9 °F 51% 30.01 in 10.0 mi SW 10.4 mph - N/A   Clear
6:35 PM 86.0 °F 88.5 °F 66.6 °F 52% 30.00 in 10.0 mi SW 12.7 mph 20.7 mph N/A   Clear
6:55 PM 85.3 °F 87.9 °F 67.1 °F 54% 30.01 in 10.0 mi SW 8.1 mph 16.1 mph N/A   Clear
7:15 PM 84.6 °F 87.4 °F 67.3 °F 56% 30.01 in 10.0 mi SW 9.2 mph 16.1 mph N/A   Clear
7:35 PM 82.9 °F 85.8 °F 67.6 °F 60% 30.01 in 10.0 mi SW 6.9 mph - N/A   Clear
7:55 PM 83.1 °F 86.1 °F 67.8 °F 60% 30.01 in 10.0 mi SW 6.9 mph - N/A   Clear
8:15 PM 82.9 °F 85.8 °F 67.6 °F 60% 30.02 in 10.0 mi SW 8.1 mph - N/A   Clear
8:35 PM 82.6 °F 85.3 °F 67.6 °F 60% 30.02 in 10.0 mi SW 8.1 mph - N/A   Clear
8:55 PM 82.2 °F 85.1 °F 68.0 °F 62% 30.03 in 10.0 mi SW 6.9 mph - N/A   Clear
9:15 PM 81.5 °F 84.4 °F 68.2 °F 64% 30.03 in 10.0 mi SW 8.1 mph - N/A   Clear
9:35 PM 81.1 °F 84.0 °F 68.4 °F 65% 30.03 in 10.0 mi SW 8.1 mph - N/A   Clear
9:55 PM 80.6 °F 83.5 °F 68.5 °F 67% 30.03 in 10.0 mi WSW 10.4 mph - N/A   Clear
10:15 PM 80.1 °F 82.9 °F 68.9 °F 69% 30.03 in 10.0 mi SW 9.2 mph - N/A   Clear
10:35 PM 79.7 °F - 68.9 °F 69% 30.02 in 10.0 mi SW 10.4 mph - N/A   Clear
10:55 PM 79.2 °F - 68.9 °F 71% 30.01 in 10.0 mi SW 8.1 mph 18.4 mph N/A   Clear
11:15 PM 78.8 °F - 69.1 °F 72% 30.02 in 10.0 mi SW 8.1 mph - N/A   Clear
11:35 PM 78.1 °F - 69.1 °F 74% 30.00 in 10.0 mi SW 10.4 mph - N/A   Clear
11:55 PM 77.9 °F - 68.9 °F 74% 30.02 in 10.0 mi SW 10.4 mph - N/A   Clear